Location: Zagreb
(45.8000°N, 16.0000°E)
Time: 20:12:12
(UTC+01:00)

deb Explorer IX - Pass Details

Date: 11 October 2020
Orbit: 537 x 1106 km, 38.8° (Epoch: 30 October)

Event Time Altitude Azimuth Distance (km) Brightness Sun altitude
Rises 17:23:36 0° 270° (W) 3,549 ? 8.2°
Reaches altitude 10° 17:26:44 10° 258° (WSW) 2,500 ? 7.6°
Maximum altitude 17:31:32 27° 204° (SSW) 1,475 ? 6.8°
Drops below altitude 10° 17:35:46 10° 147° (SSE) 2,168 ? 6.1°
Sets 17:38:17 0° 135° (SE) 2,992 ? 5.7°
